OpenBCM V1.08-3-g9b42 (Linux)

Packet Radio Mailbox

OK0NBR

[Sao_Jose_dos_Campo]

 Login: GUEST





  
I0OJJ  > KEPS     29.12.25 01:07l 322 Lines 15316 Bytes #301 (0) @ AMSAT
BID : ORB25363.1
Read: GUEST
Subj: 2Line Orbital Elements 25363.AMSAT
Path: OK0NBR<SR1BSZ<EA2RCF<I0OJJ
Sent: 251229/0021z @:I0OJJ.ITA.EU [Rome] obcm1.08-11-2-gbfe9
From: I0OJJ @ I0OJJ.ITA.EU (Gustavo)
To:   KEPS @ AMSAT
X-Info: This message was generated automatically


QST de W1STR

AMSAT Orbital Elements for Amateur Satellites in TLE Format
From Orbital Analysis Office
New England Sci-Tech STEM Education Center
Natick MA December 29, 2025
To all radio amateurs


These element sets describe the orbits of various satellites 
in use by the amateur radio community. For details see:
www.amsat.org/keplerian-elements-formats/

A daily update of element sets is available at:
www.amsat.org/tle/daily-bulletin.txt
or without bulletin text:
www.amsat.org/tle/dailytle.txt


AO-07
1 07530U 74089B   25362.79930955 -.00000026  00000-0  12732-3 0  9995
2 07530 101.9965   9.2354 0012408  96.4423  76.6623 12.53694517339169
UO-11
1 14781U 84021B   25362.64027715  .00002510  00000-0  26458-3 0  9992
2 14781  97.7832 325.4241 0008634  37.9588 322.2237 14.90197840231720
AO-27
1 22825U 93061C   25362.66225409  .00000161  00000-0  78511-4 0  9994
2 22825  98.7124  64.9657 0007508 236.5522 123.4943 14.30882817682615
FO-29
1 24278U 96046B   25362.59559700  .00000010  00000-0  45612-4 0  9999
2 24278  98.5453 229.6015 0349892 178.8132 181.3918 13.53263530450099
GO-32
1 25397U 98043D   25362.72272633  .00000135  00000-0  78323-4 0  9996
2 25397  98.9937 346.3048 0001492  30.2150 329.9114 14.24381757427068
ISS
1 25544U 98067A   25362.53357479  .00015441  00000-0  27889-3 0  9993
2 25544  51.6321  64.2558 0003250 314.4858  45.5864 15.49907133545304
NO-44
1 26931U 01043C   25362.59217509  .00000297  00000-0  14189-3 0  9999
2 26931  67.0518 325.4822 0007382 269.0422  90.9834 14.31864494266024
SO-50
1 27607U 02058C   25362.79363332  .00002696  00000-0  33820-3 0  9993
2 27607  64.5542 295.9780 0072903 293.5921  65.7540 14.82463654239196
CO-55
1 27844U 03031E   25362.74871273  .00000484  00000-0  22905-3 0  9996
2 27844  98.6763   8.4451 0008951 326.1026  33.9580 14.24193523167412
CO-57
1 27848U 03031J   25362.51214709  .00000405  00000-0  19728-3 0  9992
2 27848  98.6793   8.0612 0009169 345.7988  14.2931 14.23499231167090
RS-22
1 27939U 03042A   25362.89162845  .00002349  00000-0  37349-3 0  9997
2 27939  98.3373 177.5218 0012506  88.4482  48.4532 14.73018501190471
CO-58
1 28895U 05043F   25362.34866302  .00002390  00000-0  38880-3 0  9998
2 28895  98.2735 149.6921 0014776  31.5879 328.6211 14.71961338 76614
CO-65
1 32785U 08021C   25351.68477250  .00005656  00000-0  38073-3 0  9997
2 32785  97.8081 324.8433 0007829 290.5969  69.4418 15.07103756957832
CO-66
1 32791U 08021J   25362.71149144  .00023539  00000-0  92126-3 0  9997
2 32791  97.7458 348.4137 0003519 149.0785 211.0660 15.25818999961230
RS-30
1 32953U 08025A   25362.88675772  .00000054  00000-0  31965-3 0  9991
2 32953  82.5027 101.3810 0018483 324.9293  35.0569 12.43172623798539
SRMSAT
1 37841U 11058D   25362.22232991  .00000482  00000-0  11779-3 0  9998
2 37841  19.9733  14.2505 0011964 122.5438 316.1953 14.11516978733633
ZACUBE-1
1 39417U 13066B   25351.39749824  .00003280  00000-0  27002-3 0  9999
2 39417  97.8056 307.9496 0042001 132.1904 228.2897 14.99124350653477
Delfi-N3xt
1 39428U 13066N   25362.77057756  .00012100  00000-0  11232-2 0  9999
2 39428  97.8343 278.5781 0080490  53.4112 307.4478 14.92084820649186
GOMX-1
1 39430U 13066Q   25362.84454999  .00004284  00000-0  65647-3 0  9994
2 39430  97.6586 208.9643 0128914 264.5040  94.1451 14.68674603644902
LO-74
1 39440U 13066AA  25351.56788106  .00003439  00000-0  33426-3 0  9993
2 39440  97.8708 295.2332 0058016 269.4523  90.0047 14.92015584649893
AO-73
1 39444U 13066AE  25362.86607461  .00012747  00000-0  85656-3 0  9990
2 39444  97.8073 326.3468 0040435  63.4626 297.0737 15.06238948653998
DTUSAT-2
1 40030U 14033W   25351.70002679  .00007073  00000-0  41774-3 0  9998
2 40030  98.0754 333.4459 0009697 125.2587 234.9550 15.11812878625232
EO-80
1 40032U 14033Y   25362.69617212  .00012423  00000-0  72425-3 0  9997
2 40032  98.0659 344.4363 0009276  45.1062 315.0919 15.12102197626873
LILACSAT-2
1 40908U 15049K   25362.86361573  .00020546  00000-0  43318-3 0  9996
2 40908  97.4904  28.7459 0008943 140.6790 219.5109 15.45228307569398
IO-86
1 40931U 15052B   25151.18580175  .00001241  00000-0  78118-4 0  9996
2 40931   6.0006  24.0987 0012733 338.8432  21.1169 14.78805930523159
Horyu-4
1 41340U 16012D   25362.63911169  .00059297  00000-0  93754-3 0  9999
2 41340  30.9919 200.6946 0006415  29.2560 330.8448 15.52137576544029
Lapan A3
1 41603U 16040E   25362.89734924  .00005603  00000-0  18534-3 0  9997
2 41603  97.1437 359.8676 0008627 265.7788  94.2468 15.31693073528733
CAS-2T
1 41847U 16066G   25362.83540315  .00001520  00000-0  22481-3 0  9998
2 41847  98.4018  75.4191 0342451 286.2506  70.1271 14.44172001480207
TechnoSat
1 42829U 17042E   25362.70150303  .00004901  00000-0  36219-3 0  9994
2 42829  97.4058 162.2232 0016869 321.2566  38.7450 15.03541446461071
AO-91
1 43017U 17073E   25362.62563602  .00012548  00000-0  58731-3 0  9998
2 43017  97.4942 228.4639 0159453 195.4284 164.2055 15.09208306439638
S-Net D
1 43186U 18014G   25362.80962892  .00008821  00000-0  48145-3 0  9992
2 43186  97.5486 263.7705 0006884 244.8806 115.1712 15.14558891432959
S-Net B
1 43187U 18014H   25362.68580652  .00008769  00000-0  47899-3 0  9995
2 43187  97.5490 263.6287 0007633 240.4967 119.5503 15.14530825432933
S-Net A
1 43188U 18014J   25362.67713517  .00008669  00000-0  47316-3 0  9996
2 43188  97.5497 263.7990 0007472 241.2148 118.8334 15.14562468432936
S-Net C
1 43189U 18014K   25362.68882406  .00008517  00000-0  46527-3 0  9997
2 43189  97.5515 263.8585 0009049 233.0619 126.9785 15.14525183431485
Ten-Koh
1 43677U 18084G   25362.76823919  .00003944  00000-0  30639-3 0  9995
2 43677  98.0756 183.0394 0008073 340.3414  19.7496 15.01921068390572
PO-101
1 43678U 18084H   25362.80094189  .00005480  00000-0  45090-3 0  9994
2 43678  98.1056 186.9133 0007341   5.4962 354.6339 14.99536174390678
QO-100
1 43700U 18090A   25362.75950439  .00000166  00000-0  00000+0 0  9994
2 43700   0.0028  94.2485 0001370 207.7229  94.6913  1.00270174 25964
MinXSS-2
1 43758U 18099A   25362.72731388  .00033339  00000-0  96811-3 0  9990
2 43758  97.4776  70.3154 0009889 154.0282 206.1459 15.35375552387876
AO-95
1 43770U 18099N   25362.11094132  .00015941  00000-0  69455-3 0  9999
2 43770  97.4653  58.2806 0008544 224.1260 135.9296 15.22250833387154
SNUSat 2
1 43782U 18099AA  25362.67255157  .00011680  00000-0  56703-3 0  9997
2 43782  97.4335  53.8071 0011360 164.8119 195.3458 15.18570487387124
SnugLite
1 43784U 18099AC  25362.61984539  .00016087  00000-0  69286-3 0  9992
2 43784  97.4146  53.8592 0003645 147.4130 212.7332 15.22667073387321
ITASat 1
1 43786U 18099AE  25362.66919508  .00009461  00000-0  49044-3 0  9991
2 43786  97.4305  52.6487 0012259 221.7255 138.3044 15.16320141387042
EAGLET 1
1 43790U 18099AJ  25362.59644549  .00005922  00000-0  35518-3 0  9997
2 43790  97.4503  51.7254 0010647 207.9073 152.1587 15.11273282386551
ESEO
1 43792U 18099AL  25362.58781948  .00002840  00000-0  21195-3 0  9995
2 43792  97.4236  42.1238 0012026 188.0437 172.0598 15.03560737386163
JO-97
1 43803U 18099AX  25362.67292941  .00020957  00000-0  78290-3 0  9995
2 43803  97.4401  60.4408 0007087 146.2940 213.8751 15.27369525387544
Suomi 100
1 43804U 18099AY  25362.68156053  .00016384  00000-0  68269-3 0  9994
2 43804  97.4462  59.0196 0011486 155.3638 204.8149 15.23731301387411
ISAT
1 43879U 18111D   25362.76121875  .00049448  00000-0  11152-2 0  9999
2 43879  97.5909 283.1156 0005653 171.2747 188.8600 15.43069725384712
UWE-4
1 43880U 18111E   25362.73719468  .00032727  00000-0  95571-3 0  9999
2 43880  97.5858 279.7147 0008100 204.0263 156.0603 15.35219290384531
Sparrow
1 43881U 18111F   25362.78617803  .00054265  00000-0  11262-2 0  9990
2 43881  97.6096 286.9959 0002501 201.5724 158.5419 15.45522673384840
Prox-1
1 44339U 19036A   25362.76340326  .00018388  00000-0  20402-2 0  9999
2 44339  23.9942 168.6074 0005911 226.1112 133.8898 14.85620789348057
Taurus 1
1 44530U 19059C   25362.84312218  .00015532  00000-0  26263-2 0  9994
2 44530  98.6230 152.5874 0009083 125.5095 234.6958 14.69424268333603
TO-108
1 44881U 19093C   25362.85984668  .00000747  00000-0  91232-4 0  9998
2 44881  97.7738  74.1296 0012335 290.1092  69.8796 14.86139566326111
FloripaSat 1
1 44885U 19093G   25362.83913303  .00009967  00000-0  77439-3 0  9993
2 44885  97.8013  91.1093 0009304 277.9011  82.1156 15.01487749327062
RS-44
1 44909U 19096E   25362.65043078  .00000013  00000-0  78729-5 0  9994
2 44909  82.5216  93.0372 0217651 182.8564 177.1312 12.79746315280537
SALSAT
1 46495U 20068K   25362.85433262  .00011807  00000-0  45293-3 0  9998
2 46495  97.8799 351.0001 0010459 168.8287 191.3185 15.26610208289343
CSS (TIANHE-1)
1 48274U 21035A   25362.78858609  .00021334  00000-0  26121-3 0  9993
2 48274  41.4673 279.2286 0009137 170.0395 190.0626 15.59818740266537
CUTE
1 49263U 21088D   25362.75650064  .00032983  00000-0  41442-3 0  9997
2 49263  97.4329  86.3318 0004896 199.9522 160.1543 15.59622332235797
TeikyoSat 4
1 49396U 21102B   25362.65282191  .00003009  00000-0  19539-3 0  9991
2 49396  97.3883  33.6535 0012830 153.4860 206.7028 15.08715747227008
Z-Sat
1 49399U 21102E   25362.87703949  .00004742  00000-0  24509-3 0  9995
2 49399  97.3571  38.3341 0018730 118.4510 241.8613 15.16590475227615
KOSEN 1
1 49402U 21102H   25362.66106628  .00011015  00000-0  45734-3 0  9992
2 49402  97.3458  43.2201 0016262  90.0842 270.2259 15.23880602228025
HO-113
1 50466U 21131B   25362.82741872  .00000822  00000-0  26886-3 0  9991
2 50466  98.5037  91.1671 0003155 243.2830 116.8036 14.41134744210579
